,

(GMT )
Long Point

Weather History for CWPS - November, 2013

Change the Weather History Date:

Saturday, November 9, 2013

  Actual Average Record
Temperature  
Mean Temperature 47 °F -  
Max Temperature 54 °F - - ()
Min Temperature 40 °F - - ()
Degree Days  
Heating Degree Days 18    
Moisture  
Dew Point 35 °F    
Average Humidity 61    
Maximum Humidity 75    
Minimum Humidity 38    
Precipitation  
Precipitation 0.00 in - - ()
Sea Level Pressure  
Sea Level Pressure 29.98 in    
Wind  
Wind Speed 21 mph ()    
Max Wind Speed 38 mph    
Max Gust Speed 45 mph    
T = Trace of Precipitation, MM = Missing Value Source: Averaged Metar Reports

Daily Weather History Graph

Daily Weather History Graph

Search for Another Location

Airport or City:

Trip Planner

Search our weather history database for the weather conditions in past years. The results will help you decide how hot, cold, wet, or windy it might be!

Date:

Astronomy

Nov. 09, 2013 Rise Set
Actual Time 7:04 AM EST 5:03 PM EST
Civil Twilight 6:34 AM EST 5:33 PM EST
Nautical Twilight 6:00 AM EST 6:06 PM EST
Astronomical Twilight 5:27 AM EST 6:39 PM EST
Moon 12:38 PM EST (11/9) 11:33 PM EST (11/9)
Length of Visible Light 10h 58m
Length of Day
9h 59m
Waxing Crescent, 44% of the Moon is Illuminated
Nov 9
Waxing Crescent
Nov 10
First Quarter
Nov 17
Full
Nov 25
Last Quarter
Dec 2
New

Hourly Weather History & Observations

Time (EST) Temp. Windchill Dew Point Humidity Pressure Visibility Wind Dir Wind Speed Gust Speed Precip Events Conditions
12:00 AM 41.7 °F 36.1 °F 26.6 °F 55% 30.22 in - WSW 9.2 mph - N/A   Unknown
1:00 AM 41 °F - 28 °F 47% 30.22 in - WSW 8.1 mph - -  
1:00 AM 40.8 °F 35.6 °F 27.7 °F 60% 30.22 in - WSW 8.1 mph - N/A   Unknown
2:00 AM 41.2 °F 39.2 °F 28.6 °F 61% 30.20 in - SW 3.5 mph - N/A   Unknown
3:00 AM 42.8 °F 33.1 °F 31.1 °F 63% 30.18 in - South 25.3 mph - N/A   Unknown
4:00 AM 42.6 °F 32.6 °F 30.4 °F 62% 30.16 in - South 26.5 mph - N/A   Unknown
5:00 AM 42.6 °F 32.4 °F 31.6 °F 65% 30.15 in - SSE 27.6 mph - N/A   Unknown
6:00 AM 42.3 °F 31.6 °F 30.2 °F 62% 30.14 in - SSE 29.9 mph - N/A   Unknown
7:00 AM 42 °F - 31 °F 53% 30.13 in - SSE 28.8 mph - -  
7:00 AM 42.1 °F 31.5 °F 30.7 °F 64% 30.13 in - SSE 28.8 mph - N/A   Unknown
8:00 AM 41.9 °F 30.9 °F 31.3 °F 66% 30.12 in - SSE 31.1 mph - N/A   Unknown
9:00 AM 42.4 °F 31.3 °F 32.0 °F 67% 30.08 in - SE 33.4 mph - N/A   Unknown
10:00 AM 43.2 °F 31.6 °F 32.0 °F 65% 30.01 in - SE 38.0 mph - N/A   Unknown
11:00 AM 45.5 °F 35.0 °F 33.1 °F 62% 29.96 in - SE 36.8 mph 43.7 mph N/A   Unknown
12:00 PM 48.0 °F - 32.9 °F 56% 29.89 in - SSE 36.8 mph 42.6 mph N/A   Unknown
1:00 PM 49 °F - 31 °F 38% 29.85 in - SSE 38.0 mph - -  
1:00 PM 49.1 °F - 31.5 °F 51% 29.85 in - SSE 38.0 mph 44.9 mph N/A   Unknown
2:00 PM 48.9 °F - 31.8 °F 52% 29.83 in - South 35.7 mph - N/A   Unknown
3:00 PM 50.2 °F - 34.7 °F 55% 29.82 in - SSE 32.2 mph - N/A   Unknown
4:00 PM 51.1 °F - 37.2 °F 59% 29.81 in - SSE 28.8 mph - N/A   Unknown
5:00 PM 52.3 °F - 39.4 °F 61% 29.81 in - South 25.3 mph - N/A   Unknown
6:00 PM 53.2 °F - 44.8 °F 73% 29.83 in - South 26.5 mph 32.2 mph N/A   Unknown
7:00 PM 54 °F - 44 °F 61% 29.81 in - South 32.2 mph - -  
7:00 PM 54.0 °F - 44.4 °F 70% 29.81 in - South 32.2 mph - N/A   Unknown
8:00 PM 53.8 °F - 45.9 °F 75% 29.80 in - South 34.5 mph - N/A   Unknown
9:00 PM 52.5 °F - 40.8 °F 64% 29.83 in - SW 24.2 mph 34.5 mph N/A   Unknown
10:00 PM 51.6 °F - 42.8 °F 72% 29.82 in - SW 17.3 mph 24.2 mph N/A   Unknown
11:00 PM 51.3 °F - 43.0 °F 73% 29.81 in - SSW 18.4 mph - N/A   Unknown